VOI5800 MMGL-MMAA

Flight info

Callsign VOI5800
Flight time 0h 50m
Altitude 33000
Route EMIRI1B EMIRI DCT ZIH J1 AVURO AVURO1B
Aircraft A320/M-SDE3FGHIRWY/LB1

Departure

Time 2026-05-06 01:07
Airport Guadalajara International Airport (MMGL)

Arrival

Time 2026-05-06 01:57
Airport General Juan N. Álvarez International Airport (MMAA)
Time Latitude Longitude Altitude Speed Heading
2026-05-06 00:47 20.52404 -103.29985 5026 ft 0 kts 19°
2026-05-06 00:55 20.52394 -103.29989 5030 ft 2 kts 15°
2026-05-06 00:55 20.52379 -103.29993 5029 ft 2 kts 12°
2026-05-06 00:55 20.52363 -103.29997 5029 ft 2 kts
2026-05-06 00:56 20.52346 -103.29995 5026 ft 2 kts 325°
2026-05-06 00:56 20.52336 -103.29984 5029 ft 1 kts 289°
2026-05-06 00:56 20.52336 -103.29982 5029 ft 0 kts 287°
2026-05-06 00:59 20.52336 -103.29984 5029 ft 1 kts 286°
2026-05-06 01:00 20.52339 -103.29996 5029 ft 2 kts 283°
2026-05-06 01:00 20.52335 -103.30013 5027 ft 2 kts 231°
2026-05-06 01:00 20.52318 -103.30023 5029 ft 3 kts 204°
2026-05-06 01:00 20.52294 -103.30033 5029 ft 4 kts 201°
2026-05-06 01:01 20.52264 -103.30045 5029 ft 5 kts 199°
2026-05-06 01:01 20.52227 -103.30059 5029 ft 6 kts 199°
2026-05-06 01:01 20.52184 -103.30062 5030 ft 6 kts 150°
2026-05-06 01:01 20.52161 -103.30017 5028 ft 7 kts 116°
2026-05-06 01:02 20.52139 -103.29964 5027 ft 8 kts 114°
2026-05-06 01:02 20.52115 -103.29908 5029 ft 9 kts 115°
2026-05-06 01:02 20.52091 -103.29848 5029 ft 9 kts 114°
2026-05-06 01:02 20.52065 -103.29787 5029 ft 9 kts 115°
2026-05-06 01:03 20.52037 -103.29722 5029 ft 10 kts 114°
2026-05-06 01:03 20.52009 -103.29654 5029 ft 10 kts 114°
2026-05-06 01:03 20.51979 -103.29584 5030 ft 11 kts 114°
2026-05-06 01:03 20.51931 -103.29531 5030 ft 10 kts 178°
2026-05-06 01:04 20.51901 -103.29544 5030 ft 0 kts 204°
2026-05-06 01:04 20.51900 -103.29545 5030 ft 0 kts 204°
2026-05-06 01:04 20.51896 -103.29547 5030 ft 1 kts 204°
2026-05-06 01:05 20.51879 -103.29554 5030 ft 7 kts 204°
2026-05-06 01:05 20.51825 -103.29587 5030 ft 9 kts 232°
2026-05-06 01:05 20.51835 -103.29648 5030 ft 0 kts 294°
2026-05-06 01:06 20.51840 -103.29660 5028 ft 12 kts 295°
2026-05-06 01:06 20.51981 -103.29997 5028 ft 84 kts 294°
2026-05-06 01:07 20.52297 -103.30749 5030 ft 138 kts 294°
2026-05-06 01:07 20.52745 -103.31824 5205 ft 170 kts 292°
2026-05-06 01:07 20.53212 -103.32989 6064 ft 171 kts 297°
2026-05-06 01:07 20.53688 -103.34147 6724 ft 169 kts 293°
2026-05-06 01:08 20.54146 -103.35289 7405 ft 166 kts 293°
2026-05-06 01:08 20.54578 -103.36435 7987 ft 171 kts 287°
2026-05-06 01:08 20.54507 -103.37754 8270 ft 196 kts 245°
2026-05-06 01:08 20.53436 -103.38781 8569 ft 228 kts 201°
2026-05-06 01:09 20.51799 -103.38838 8904 ft 258 kts 164°
2026-05-06 01:09 20.50192 -103.37789 9278 ft 286 kts 138°
2026-05-06 01:09 20.48782 -103.36183 9763 ft 302 kts 133°
2026-05-06 01:09 20.47337 -103.34492 10247 ft 310 kts 133°
2026-05-06 01:10 20.45851 -103.32759 10402 ft 331 kts 134°
2026-05-06 01:10 20.44248 -103.30885 10527 ft 351 kts 133°
2026-05-06 01:10 20.42576 -103.28925 10912 ft 358 kts 133°
2026-05-06 01:10 20.40892 -103.26949 11443 ft 361 kts 133°
2026-05-06 01:11 20.39193 -103.24951 11995 ft 362 kts 134°
2026-05-06 01:11 20.37516 -103.22983 12346 ft 363 kts 134°
2026-05-06 01:11 20.35810 -103.20985 12950 ft 365 kts 134°
2026-05-06 01:11 20.34102 -103.18987 13541 ft 366 kts 134°
2026-05-06 01:12 20.32379 -103.16969 14084 ft 367 kts 134°
2026-05-06 01:12 20.30657 -103.14947 14594 ft 370 kts 134°
2026-05-06 01:12 20.28920 -103.12908 15044 ft 373 kts 133°
2026-05-06 01:12 20.27162 -103.10845 15488 ft 377 kts 133°
2026-05-06 01:13 20.25389 -103.08769 16003 ft 379 kts 134°
2026-05-06 01:13 20.23609 -103.06692 16558 ft 380 kts 134°
2026-05-06 01:13 20.21847 -103.04636 17078 ft 381 kts 134°
2026-05-06 01:13 20.20059 -103.02553 17618 ft 382 kts 134°
2026-05-06 01:14 20.16468 -102.98360 18621 ft 384 kts 134°
2026-05-06 01:14 20.14669 -102.96252 19069 ft 385 kts 134°
2026-05-06 01:14 20.12860 -102.94138 19506 ft 387 kts 134°
2026-05-06 01:15 20.11042 -102.92015 19932 ft 389 kts 134°
2026-05-06 01:15 20.09212 -102.89880 20352 ft 390 kts 134°
2026-05-06 01:15 20.07396 -102.87766 20785 ft 392 kts 134°
2026-05-06 01:15 20.05562 -102.85630 21224 ft 393 kts 134°
2026-05-06 01:16 20.03710 -102.83474 21648 ft 395 kts 135°
2026-05-06 01:16 20.01848 -102.81306 22059 ft 397 kts 134°
2026-05-06 01:16 19.99980 -102.79129 22472 ft 399 kts 134°
2026-05-06 01:16 19.98105 -102.76943 22879 ft 400 kts 134°
2026-05-06 01:17 19.96223 -102.74753 23269 ft 402 kts 135°
2026-05-06 01:17 19.94322 -102.72545 23607 ft 405 kts 134°
2026-05-06 01:17 19.92417 -102.70333 23915 ft 407 kts 134°
2026-05-06 01:17 19.90512 -102.68122 24211 ft 409 kts 134°
2026-05-06 01:18 19.88580 -102.65881 24489 ft 412 kts 135°
2026-05-06 01:18 19.86632 -102.63628 24786 ft 415 kts 135°
2026-05-06 01:18 19.84673 -102.61361 25072 ft 417 kts 135°
2026-05-06 01:18 19.82721 -102.59104 25357 ft 420 kts 135°
2026-05-06 01:19 19.80560 -102.57009 25615 ft 420 kts 145°
2026-05-06 01:19 19.78090 -102.55353 25890 ft 421 kts 154°
2026-05-06 01:19 19.75443 -102.54015 26168 ft 422 kts 156°
2026-05-06 01:19 19.72773 -102.52682 26443 ft 425 kts 156°
2026-05-06 01:20 19.70088 -102.51341 26712 ft 427 kts 156°
2026-05-06 01:20 19.67390 -102.49993 26995 ft 429 kts 156°
2026-05-06 01:20 19.64700 -102.48649 27287 ft 431 kts 156°
2026-05-06 01:20 19.61975 -102.47284 27592 ft 433 kts 156°
2026-05-06 01:21 19.59270 -102.45927 27875 ft 436 kts 156°
2026-05-06 01:21 19.56522 -102.44550 28159 ft 438 kts 156°
2026-05-06 01:21 19.53752 -102.43164 28442 ft 440 kts 156°
2026-05-06 01:21 19.50973 -102.41775 28720 ft 443 kts 156°
2026-05-06 01:22 19.48194 -102.40384 28964 ft 445 kts 156°
2026-05-06 01:22 19.45377 -102.38978 29292 ft 446 kts 156°
2026-05-06 01:22 19.42565 -102.37576 29699 ft 446 kts 157°
2026-05-06 01:22 19.39745 -102.36172 30076 ft 446 kts 157°
2026-05-06 01:23 19.36933 -102.34773 30385 ft 445 kts 157°
2026-05-06 01:23 19.34168 -102.33394 30774 ft 444 kts 157°
2026-05-06 01:23 19.31374 -102.31998 31125 ft 444 kts 157°
2026-05-06 01:23 19.28562 -102.30591 31473 ft 444 kts 157°
2026-05-06 01:24 19.25787 -102.29203 31817 ft 444 kts 157°
2026-05-06 01:24 19.22990 -102.27808 32121 ft 444 kts 157°
2026-05-06 01:24 19.20183 -102.26413 32478 ft 444 kts 158°
2026-05-06 01:24 19.17380 -102.25021 32762 ft 445 kts 158°
2026-05-06 01:25 19.11730 -102.22220 32798 ft 457 kts 157°
2026-05-06 01:25 19.05882 -102.19318 32797 ft 467 kts 157°
2026-05-06 01:26 18.99988 -102.16385 32813 ft 469 kts 157°
2026-05-06 01:26 18.94076 -102.13445 32799 ft 469 kts 157°
2026-05-06 01:27 18.88200 -102.10528 32797 ft 469 kts 157°
2026-05-06 01:27 18.82269 -102.07589 32804 ft 469 kts 157°
2026-05-06 01:28 18.76387 -102.04685 32804 ft 469 kts 157°
2026-05-06 01:28 18.70466 -102.01766 32826 ft 469 kts 158°
2026-05-06 01:29 18.64584 -101.98858 32828 ft 469 kts 157°
2026-05-06 01:29 18.58663 -101.95929 32851 ft 468 kts 158°
2026-05-06 01:30 18.52758 -101.93014 32855 ft 468 kts 158°
2026-05-06 01:30 18.46879 -101.90110 32873 ft 468 kts 158°
2026-05-06 01:31 18.40992 -101.87206 32867 ft 468 kts 157°
2026-05-06 01:31 18.35062 -101.84279 32860 ft 469 kts 157°
2026-05-06 01:32 18.29160 -101.81376 32880 ft 469 kts 157°
2026-05-06 01:32 18.23227 -101.78461 32877 ft 470 kts 157°
2026-05-06 01:33 18.17334 -101.75571 32890 ft 470 kts 157°
2026-05-06 01:33 18.11386 -101.72658 32897 ft 470 kts 157°
2026-05-06 01:34 18.05474 -101.69761 32894 ft 471 kts 156°
2026-05-06 01:34 17.99528 -101.66839 32896 ft 471 kts 157°
2026-05-06 01:35 17.93583 -101.63924 32899 ft 471 kts 157°
2026-05-06 01:35 17.87659 -101.61026 32896 ft 471 kts 157°
2026-05-06 01:36 17.81745 -101.58137 32891 ft 471 kts 157°
2026-05-06 01:36 17.75782 -101.55226 32892 ft 471 kts 157°
2026-05-06 01:37 17.69840 -101.52322 32881 ft 470 kts 157°
2026-05-06 01:37 17.64008 -101.49265 32880 ft 472 kts 148°
2026-05-06 01:38 17.59181 -101.44584 32878 ft 477 kts 129°
2026-05-06 01:38 17.55906 -101.38537 32881 ft 480 kts 118°
2026-05-06 01:39 17.52881 -101.32286 32866 ft 481 kts 119°
2026-05-06 01:39 17.49833 -101.26042 32886 ft 481 kts 119°
2026-05-06 01:40 17.47302 -101.20846 32886 ft 481 kts 119°
2026-05-06 01:40 17.43772 -101.13584 32884 ft 480 kts 119°
2026-05-06 01:41 17.41247 -101.08386 32876 ft 480 kts 118°
2026-05-06 01:41 17.37721 -101.01134 32886 ft 480 kts 118°
2026-05-06 01:42 17.35198 -100.95966 32835 ft 478 kts 119°
2026-05-06 01:42 17.33684 -100.92864 32417 ft 476 kts 118°
2026-05-06 01:42 17.32170 -100.89764 32171 ft 478 kts 118°
2026-05-06 01:43 17.30659 -100.86666 31925 ft 479 kts 118°
2026-05-06 01:43 17.29141 -100.83557 31686 ft 479 kts 118°
2026-05-06 01:43 17.27624 -100.80454 31440 ft 479 kts 118°
2026-05-06 01:43 17.26117 -100.77379 31213 ft 479 kts 118°
2026-05-06 01:44 17.24593 -100.74271 30988 ft 479 kts 118°
2026-05-06 01:44 17.23071 -100.71170 30753 ft 478 kts 118°
2026-05-06 01:44 17.21551 -100.68075 29968 ft 481 kts 118°
2026-05-06 01:44 17.20016 -100.64938 28913 ft 483 kts 118°
2026-05-06 01:45 17.18503 -100.61840 27696 ft 475 kts 118°
2026-05-06 01:45 17.17016 -100.58796 26583 ft 464 kts 118°
2026-05-06 01:45 17.15555 -100.55813 25444 ft 455 kts 118°
2026-05-06 01:45 17.14119 -100.52888 24357 ft 451 kts 118°
2026-05-06 01:46 17.12689 -100.49978 23302 ft 448 kts 117°
2026-05-06 01:46 17.11289 -100.47133 22317 ft 441 kts 117°
2026-05-06 01:46 17.09900 -100.44312 21504 ft 432 kts 117°
2026-05-06 01:46 17.08534 -100.41537 20673 ft 425 kts 117°
2026-05-06 01:47 17.07159 -100.38743 20082 ft 439 kts 117°
2026-05-06 01:47 17.05755 -100.35891 19060 ft 439 kts 117°
2026-05-06 01:47 17.04383 -100.33098 18101 ft 431 kts 117°
2026-05-06 01:47 17.03025 -100.30334 17125 ft 421 kts 117°
2026-05-06 01:48 17.01704 -100.27650 16341 ft 409 kts 117°
2026-05-06 01:48 17.00410 -100.25028 15562 ft 399 kts 117°
2026-05-06 01:48 16.99225 -100.22479 14825 ft 391 kts 111°
2026-05-06 01:48 16.98348 -100.19818 14109 ft 385 kts 107°
2026-05-06 01:49 16.97527 -100.17146 13390 ft 387 kts 107°
2026-05-06 01:49 16.96703 -100.14475 12691 ft 385 kts 107°
2026-05-06 01:49 16.95884 -100.11831 12038 ft 381 kts 107°
2026-05-06 01:49 16.95068 -100.09207 11385 ft 378 kts 107°
2026-05-06 01:50 16.94257 -100.06612 11072 ft 367 kts 108°
2026-05-06 01:50 16.93491 -100.04166 10938 ft 351 kts 108°
2026-05-06 01:50 16.92742 -100.01776 10819 ft 336 kts 108°
2026-05-06 01:50 16.92030 -99.99499 10702 ft 324 kts 107°
2026-05-06 01:51 16.91325 -99.97235 10577 ft 312 kts 108°
2026-05-06 01:51 16.90665 -99.95115 10459 ft 302 kts 107°
2026-05-06 01:51 16.90029 -99.93071 10295 ft 295 kts 108°
2026-05-06 01:51 16.89401 -99.91055 9811 ft 290 kts 107°
2026-05-06 01:52 16.88776 -99.89049 9200 ft 287 kts 108°
2026-05-06 01:52 16.88171 -99.87107 8269 ft 283 kts 108°
2026-05-06 01:52 16.87560 -99.85150 7334 ft 282 kts 108°
2026-05-06 01:52 16.86957 -99.83222 6420 ft 280 kts 109°
2026-05-06 01:53 16.86354 -99.81293 5524 ft 277 kts 108°
2026-05-06 01:53 16.85759 -99.79388 4631 ft 274 kts 109°
2026-05-06 01:53 16.85171 -99.77511 3883 ft 268 kts 108°
2026-05-06 01:53 16.84589 -99.75654 3121 ft 269 kts 108°
2026-05-06 01:54 16.83983 -99.73866 2858 ft 255 kts 116°
2026-05-06 01:54 16.83183 -99.72295 2491 ft 237 kts 120°
2026-05-06 01:54 16.82373 -99.70822 1948 ft 231 kts 121°
2026-05-06 01:54 16.81571 -99.69384 1512 ft 226 kts 126°
2026-05-06 01:55 16.80441 -99.68252 921 ft 229 kts 145°
2026-05-06 01:55 16.79033 -99.67548 894 ft 223 kts 174°
2026-05-06 01:55 16.77513 -99.67485 962 ft 211 kts 183°
2026-05-06 01:55 16.76110 -99.67534 897 ft 189 kts 195°
2026-05-06 01:56 16.75045 -99.68095 882 ft 163 kts 236°
2026-05-06 01:56 16.74597 -99.69071 1001 ft 152 kts 260°
2026-05-06 01:56 16.74469 -99.70139 865 ft 140 kts 270°
2026-05-06 01:56 16.74561 -99.71160 525 ft 144 kts 282°
2026-05-06 01:57 16.74791 -99.72164 238 ft 142 kts 283°
2026-05-06 01:57 16.75019 -99.73137 82 ft 139 kts 285°
2026-05-06 01:57 16.75285 -99.74020 19 ft 89 kts 288°
2026-05-06 01:57 16.75421 -99.74458 19 ft 46 kts 288°
2026-05-06 01:58 16.75520 -99.74769 20 ft 45 kts 288°
2026-05-06 01:58 16.75620 -99.74970 17 ft 25 kts 314°
2026-05-06 01:58 16.75740 -99.75066 17 ft 12 kts 332°
2026-05-06 01:58 16.75756 -99.75074 17 ft 2 kts 333°
2026-05-06 01:59 16.75788 -99.75089 18 ft 7 kts 337°
2026-05-06 01:59 16.75837 -99.75110 18 ft 9 kts 337°
2026-05-06 01:59 16.75909 -99.75142 17 ft 18 kts 337°
2026-05-06 01:59 16.76000 -99.75211 17 ft 15 kts 266°
2026-05-06 02:00 16.75962 -99.75324 17 ft 16 kts 272°
2026-05-06 02:00 16.76000 -99.75435 17 ft 17 kts 285°
2026-05-06 02:00 16.76037 -99.75555 19 ft 16 kts 288°
2026-05-06 02:00 16.76092 -99.75644 17 ft 15 kts
2026-05-06 02:01 16.76168 -99.75618 17 ft 0 kts 18°